Location: Ahausen
(50.4985°N, 8.2722°E)
Time: 01:46:20
(UTC+00:00)

N. Korean satellite - Visible Passes

Search period start: 20 January 2022 00:00
Search period end: 30 January 2022 00:00
Orbit: 446 x 491 km, 97.3° (Epoch: 19 January)

Date Brightness Start Highest point End Pass type
(mag) Time Alt. Az. Time Alt. Az. Time Alt. Az.
20 Jan 9.0 04:01:52 10° NE 04:04:11 22° ENE 04:04:11 22° ENE visible
20 Jan 7.3 05:34:48 10° N 05:38:02 31° WNW 05:38:14 31° WNW visible
21 Jan 9.9 03:34:01 10° ENE 03:35:05 12° E 03:35:05 12° E visible
21 Jan 6.4 05:05:24 10° N 05:09:00 66° WNW 05:09:08 65° W visible
22 Jan 7.2 04:36:16 10° NNE 04:39:51 57° E 04:40:01 56° ESE visible
22 Jan 8.3 06:10:28 10° NNW 06:12:36 15° WNW 06:14:05 12° W visible
22 Jan 9.6 16:48:54 10° SW 16:51:12 17° W 16:53:32 10° NW visible
23 Jan 8.7 04:07:24 10° NE 04:10:33 27° E 04:10:54 26° ESE visible
23 Jan 7.5 05:40:32 10° N 05:43:39 27° WNW 05:44:58 22° WSW visible
24 Jan 9.7 03:39:12 10° ENE 03:41:07 14° E 03:41:46 13° ESE visible
24 Jan 6.6 05:11:01 10° N 05:14:35 56° WNW 05:15:50 35° SW visible
25 Jan 6.9 04:41:45 10° NNE 04:45:23 66° ESE 04:46:42 36° S visible
25 Jan 8.4 06:16:14 10° NNW 06:18:03 13° WNW 06:19:52 10° W visible
25 Jan 9.8 16:54:41 10° SW 16:56:43 15° W 16:58:47 10° NW visible
26 Jan 8.4 04:12:45 10° NNE 04:16:02 31° E 04:17:33 22° SE visible
26 Jan 7.6 05:46:04 10° N 05:49:04 24° WNW 05:51:37 12° WSW visible
27 Jan 9.6 03:44:17 10° NE 03:46:32 16° E 03:48:25 11° ESE visible
27 Jan 6.7 05:16:24 10° N 05:19:57 49° WNW 05:22:28 17° SW visible
28 Jan 6.6 04:47:01 10° NNE 04:50:41 77° ESE 04:53:20 18° S visible
28 Jan 8.5 06:21:51 10° NW 06:23:17 12° WNW 06:24:42 10° W visible
28 Jan 9.9 17:00:18 10° WSW 17:02:01 13° W 17:03:46 10° WNW visible
29 Jan 8.2 04:17:55 10° NNE 04:21:17 35° E 04:24:13 13° SSE visible
29 Jan 7.8 05:51:24 10° NNW 05:54:15 22° WNW 05:57:05 10° WSW visible
